Location: Big Prairie
(40.6673°N, 82.0952°W)
Time: 08:49:28
(UTC+00:00)

USA 267 - Visible Passes

Search period start: 26 June 2022 00:00
Search period end: 06 July 2022 00:00
Orbit: 1101 x 1106 km, 123.0° (Epoch: 22 June)

Date Brightness Start Highest point End Pass type
(mag) Time Alt. Az. Time Alt. Az. Time Alt. Az.
26 Jun 3.8 01:27:57 10° ENE 01:33:54 36° SE 01:39:50 10° SSW visible
26 Jun 3.7 03:10:39 10° NE 03:17:07 65° NW 03:23:33 10° WSW visible
26 Jun 5.2 04:54:02 10° NE 04:59:21 27° NNW 05:04:39 10° WNW visible
26 Jun 5.7 06:36:20 10° NE 06:40:56 21° N 06:45:31 10° NW visible
26 Jun 5.2 08:17:02 10° E 08:22:35 31° NNE 08:28:07 10° NW visible
27 Jun 3.2 02:27:52 10° NE 02:34:25 72° SE 02:40:56 10° SW visible
27 Jun 4.6 04:11:09 10° NE 04:17:07 39° NNW 04:23:05 10° W visible
27 Jun 5.6 05:54:12 10° NE 05:58:57 22° N 06:03:42 10° NW visible
27 Jun 5.6 07:35:33 10° ENE 07:40:28 23° NNE 07:45:24 10° NW visible
27 Jun 4.5 09:16:16 10° ESE 09:22:26 46° NNE 09:28:37 10° NW visible
28 Jun 3.7 01:45:30 10° ENE 01:51:27 37° SE 01:57:23 10° SSW visible
28 Jun 3.7 03:28:12 10° NE 03:34:40 64° NW 03:41:06 10° WSW visible
28 Jun 5.2 05:11:35 10° NE 05:16:53 27° NNW 05:22:11 10° WNW visible
28 Jun 5.7 06:53:53 10° NE 06:58:28 21° N 07:03:03 10° NW visible
28 Jun 5.2 08:34:34 10° E 08:40:07 31° NNE 08:45:41 10° NW visible
29 Jun 3.2 02:45:24 10° NE 02:51:57 73° SE 02:58:28 10° SW visible
29 Jun 4.6 04:28:42 10° NE 04:34:39 39° NNW 04:40:37 10° W visible
29 Jun 5.5 06:11:44 10° NE 06:16:29 22° N 06:21:14 10° NW visible
29 Jun 5.6 07:53:05 10° ENE 07:58:00 23° NNE 08:02:56 10° NW visible
30 Jun 3.7 02:03:02 10° ENE 02:09:00 37° SE 02:14:57 10° SSW visible
30 Jun 3.7 03:45:45 10° NE 03:52:12 64° NW 03:58:38 10° WSW visible
30 Jun 5.2 05:29:08 10° NE 05:34:26 27° NNW 05:39:43 10° WNW visible
30 Jun 5.6 07:11:25 10° NE 07:16:00 21° N 07:20:36 10° NW visible
30 Jun 5.2 08:52:07 10° E 08:57:40 31° NNE 09:03:13 10° NW visible
01 Jul 3.1 03:02:57 10° NE 03:09:30 73° SE 03:16:02 10° SW visible
01 Jul 4.5 04:46:15 10° NE 04:52:12 39° NNW 04:58:09 10° W visible
01 Jul 5.5 06:29:17 10° NE 06:34:02 22° N 06:38:46 10° NW visible
01 Jul 5.5 08:10:37 10° ENE 08:15:33 23° NNE 08:20:29 10° NW visible
02 Jul 3.7 02:20:35 10° ENE 02:26:33 37° SE 02:32:31 10° SSW visible
02 Jul 3.6 04:03:18 10° NE 04:09:45 64° NW 04:16:11 10° WSW visible
02 Jul 5.2 05:46:41 10° NE 05:51:58 27° NNW 05:57:16 10° WNW visible
02 Jul 5.6 07:28:57 10° NE 07:33:33 21° N 07:38:08 10° NW visible
02 Jul 5.2 09:09:39 10° E 09:15:12 31° NNE 09:20:46 10° NW visible
03 Jul 4.5 01:39:21 10° E 01:43:23 17° ESE 01:47:25 10° SSE visible
03 Jul 3.1 03:20:30 10° NE 03:27:04 74° SE 03:33:35 10° SW visible
03 Jul 4.5 05:03:48 10° NE 05:09:45 39° NNW 05:15:41 10° W visible
03 Jul 5.5 06:46:50 10° NE 06:51:34 22° N 06:56:19 10° NW visible
03 Jul 5.5 08:28:09 10° ENE 08:33:05 24° NNE 08:38:02 10° NW visible
04 Jul 3.7 02:38:07 10° ENE 02:44:07 37° SE 02:50:05 10° SSW visible
04 Jul 3.6 04:20:51 10° NE 04:27:18 63° NW 04:33:44 10° WSW visible
04 Jul 5.1 06:04:14 10° NE 06:09:30 27° NNW 06:14:47 10° WNW visible
04 Jul 5.6 07:46:30 10° NE 07:51:05 21° N 07:55:41 10° NW visible
04 Jul 5.2 09:27:11 10° E 09:32:45 31° NNE 09:38:19 10° NW visible
05 Jul 4.5 01:56:52 10° E 02:00:57 17° ESE 02:05:00 10° SSE visible
05 Jul 3.1 03:38:03 10° NE 03:44:36 74° SE 03:51:08 10° SW visible
05 Jul 4.5 05:21:21 10° NE 05:27:17 39° NNW 05:33:13 10° W visible
05 Jul 5.5 07:04:23 10° NE 07:09:07 22° N 07:13:51 10° NW visible
05 Jul 5.5 08:45:41 10° ENE 08:50:38 24° NNE 08:55:35 10° NW visible
